Location: Unspecified
(43.0000°N, 0.0000°E)
Time: 15:11:13
(UTC+00:00)

PicSat - Pass Details

Date: 26 July 2019
Orbit: 486 x 500 km, 97.5° (Epoch: 23 August)

Event Time Altitude Azimuth Distance (km) Brightness Sun altitude
Exits shadow 21:28:35 47° 140° (SE) 663 ? -17.9°
Maximum altitude 21:29:28 69° 76° (ENE) 533 ? -18.0°
Drops below altitude 10° 21:33:05 10° 353° (N) 1,692 ? -18.4°
Sets 21:35:10 0° 351° (N) 2,577 ? -18.6°
